ROMMA est une association bénévole à but non lucratif. Votre soutien est indispensable : ADHERER à ROMMA ou FAIRE un DON

Lans-en-Vercors - (38, Isère)

Vercors (990 m)   Longitude: 5° 33' 59'' E   Latitude: 45° 6' 3'' N Station partenaire n°80
 

Détail journalier du     <<     >>

Température Precipitation Humidité Pression Vent Dir Rafale Dir. rafale Ensol.
Heure (°C) (mm) (%) (hPa) (km/h) (km/h) (min)
01:00 -4.0089101300ONO0
02:00 -4.1090101302ONO0
03:00 -5.0087101405ONO0
04:00 -4.8090101402ONO0
05:00 -4.909010141ONO5ONO0
06:00 -5.6091101400ONO0
07:00 -5.4091101405ONO20
08:00 -3.3090101402ONO40
09:00 0.4079101403ONO60
10:00 3.407110141ONO6ONO60
11:00 7.005610143NNE18NNE60
12:00 8.1056101415N31NNE60
13:00 9.8052101314NNE29NNE60
14:00 9.3052101319NNE37NNE50
15:00 10.9047101318NNE32NNE40
16:00 11.0048101415NNE26NNE40
17:00 9.8055101413NNE24NE60
18:00 8.1060101412NNE21NE60
19:00 5.9066101510NNE21NNE30
20:00 4.807110166NNE18NNE0
21:00 3.9075101606NNE0
22:00 2.7081101702NNE0
23:00 2.2084101700NNE0
minuit 1.2087101700NNE0

Graphique du 27-03-2020

 

Serveur OMMA